McAlester, OK

5:00 AM CST on December 13, 2019 (GMT -0600)
McAlester Regional

Weather History for KMLC - September, 2019

Change the Weather History Date:

Sunday, September 1, 2019

  Actual Average Record
Temperature  
Mean Temperature 81 °F -  
Max Temperature 91 °F 90 °F 108 °F (2000)
Min Temperature 71 °F 67 °F 52 °F (1967)
Cooling Degree Days 16    
Growing Degree Days 31 (Base 50)    
Moisture  
Dew Point 71 °F    
Average Humidity 75    
Maximum Humidity 96    
Minimum Humidity 48    
Precipitation  
Precipitation 0.00 in - - ()
Sea Level Pressure  
Sea Level Pressure 30.05 in    
Wind  
Wind Speed 1 mph (ENE)    
Max Wind Speed 5 mph    
Max Gust Speed -    
Visibility 10 miles    
Events      
Averages and records for this station are not official NWS values.
T = Trace of Precipitation, MM = Missing Value Source: NWS Daily Summary

Daily Weather History Graph

Daily Weather History Graph

Search for Another Location

Airport or City:

Astronomy

Sep. 01, 2019 Rise Set
Actual Time 6:55 AM CDT 7:49 PM CDT
Civil Twilight 6:29 AM CDT 8:15 PM CDT
Nautical Twilight 5:59 AM CDT 8:46 PM CDT
Astronomical Twilight 5:27 AM CDT 9:17 PM CDT
Moon 9:22 AM CDT (9/1) 9:44 PM CDT (9/1)
Length of Visible Light 13h 45m
Length of Day
12h 54m
Waxing Crescent, 8% of the Moon is Illuminated
Sep 1
Waxing Crescent
Sep 5
First Quarter
Sep 13
Full
Sep 21
Last Quarter
Sep 28
New

Hourly Weather History & Observations

Time (CDT) Temp. Heat Index Dew Point Humidity Pressure Visibility Wind Dir Wind Speed Gust Speed Precip Events Conditions
12:53 AM 73.9 °F - 70.0 °F 87% 30.06 in 10.0 mi Calm Calm - N/A   Clear
1:53 AM 73.0 °F - 70.0 °F 90% 30.06 in 10.0 mi North 3.5 mph - N/A   Partly Cloudy
2:53 AM 71.1 °F - 69.1 °F 93% 30.05 in 10.0 mi Calm Calm - N/A   Partly Cloudy
3:53 AM 71.1 °F - 70.0 °F 96% 30.05 in 10.0 mi Calm Calm - N/A   Clear
4:53 AM 72.0 °F - 69.1 °F 91% 30.06 in 10.0 mi Calm Calm - N/A   Clear
5:53 AM 71.1 °F - 69.1 °F 93% 30.06 in 10.0 mi Calm Calm - N/A   Partly Cloudy
6:53 AM 73.0 °F - 70.0 °F 90% 30.08 in 10.0 mi NE 3.5 mph - N/A   Partly Cloudy
7:53 AM 73.0 °F - 71.1 °F 93% 30.08 in 10.0 mi Calm Calm - N/A   Scattered Clouds
8:53 AM 77.0 °F - 71.1 °F 82% 30.09 in 10.0 mi Calm Calm - N/A   Scattered Clouds
9:53 AM 81.0 °F 85.2 °F 72.0 °F 74% 30.10 in 10.0 mi Calm Calm - N/A   Clear
10:53 AM 84.9 °F 90.7 °F 72.0 °F 65% 30.10 in 10.0 mi Calm Calm - N/A   Clear
11:53 AM 84.9 °F 90.1 °F 71.1 °F 63% 30.09 in 10.0 mi Calm Calm - N/A   Clear
12:53 PM 87.1 °F 92.8 °F 71.1 °F 59% 30.07 in 10.0 mi Calm Calm - N/A   Clear
1:53 PM 88.0 °F 92.9 °F 70.0 °F 55% 30.06 in 10.0 mi Calm Calm - N/A   Clear
2:53 PM 91.9 °F 97.4 °F 70.0 °F 48% 30.04 in 10.0 mi Calm Calm - N/A   Clear
3:53 PM 91.0 °F 97.6 °F 71.1 °F 52% 30.02 in 10.0 mi Variable 4.6 mph - N/A   Mostly Cloudy
4:53 PM 91.0 °F 96.6 °F 70.0 °F 50% 30.00 in 10.0 mi Calm Calm - N/A   Clear
5:53 PM 89.1 °F 94.1 °F 70.0 °F 53% 30.00 in 10.0 mi ESE 3.5 mph - N/A   Clear
6:53 PM 88.0 °F 95.6 °F 73.0 °F 61% 30.00 in 10.0 mi Calm Calm - N/A   Clear
7:53 PM 81.0 °F 86.2 °F 73.9 °F 79% 30.00 in 10.0 mi Calm Calm - N/A   Clear
8:53 PM 80.1 °F 84.5 °F 73.9 °F 81% 30.01 in 10.0 mi Calm Calm - N/A   Partly Cloudy
9:53 PM 80.1 °F 83.8 °F 72.0 °F 76% 30.03 in 10.0 mi East 4.6 mph - N/A   Partly Cloudy
10:53 PM 79.0 °F - 72.0 °F 79% 30.04 in 10.0 mi East 4.6 mph - N/A   Scattered Clouds
11:53 PM 78.1 °F - 72.0 °F 81% 30.05 in 10.0 mi East 3.5 mph - N/A   Partly Cloudy